START_TIME,STEP,MOV.,M6,t_acc.,M7,t_acc.,M19,t_acc.,H36,t_acc.
1980-11-14 03:00:15.660 ,4,0,0.,12.0,0.,12.0,0.,12.0,0.,12.0
1980-11-14 03:00:27.660 ,4,0,0.,12.0,0.,12.0,0.,12.0,0.,12.0
1980-11-14 03:00:39.660 ,5,1,0.,12.0,0.,12.0,0.,12.0,0.,12.0
1980-11-14 03:00:51.660 ,5,1,0.,12.0,0.,12.0,0.,12.0,0.,12.0
1980-11-14 03:01:03.660 ,5,0,0.,12.0,0.,12.0,0.,12.0,0.,12.0
1980-11-14 03:01:15.660 ,5,0,0.,12.0,0.,12.0,0.,12.0,0.,12.0
1980-11-14 03:01:27.660 ,6,1,0.,12.0,0.,12.0,0.,12.0,0.,12.0
1980-11-14 03:01:39.660 ,6,1,0.,12.0,0.,12.0,0.,12.0,0.,12.0
1980-11-14 03:01:51.660 ,6,0,0.,12.0,0.,12.0,0.,12.0,0.,12.0
1980-11-14 03:02:03.660 ,6,0,0.,12.0,0.,12.0,0.,12.0,0.,12.0
1980-11-14 03:02:15.660 ,7,1,0.,12.0,0.,12.0,0.,12.0,0.,12.0
1980-11-14 03:02:27.660 ,7,1,0.,12.0,0.,12.0,0.,12.0,0.,12.0
1980-11-14 03:02:39.660 ,7,0,0.,12.0,0.,12.0,0.,12.0,0.,12.0
1980-11-14 03:02:51.660 ,7,0,0.,12.0,0.,12.0,0.,12.0,0.,12.0
1980-11-14 03:03:03.660 ,7,1,0.,12.0,0.,12.0,0.,12.0,0.,12.0
1980-11-14 03:03:15.660 ,7,1,0.,12.0,0.,12.0,0.,12.0,0.,12.0
1980-11-14 03:03:27.660 ,7,0,0.,12.0,0.,12.0,0.,12.0,0.,12.0
1980-11-14 03:03:39.660 ,7,0,0.,12.0,0.,12.0,0.,12.0,0.,12.0
1980-11-14 03:03:51.660 ,6,1,0.,12.0,0.,12.0,0.,12.0,0.,12.0
1980-11-14 03:04:03.660 ,6,1,0.,12.0,0.,12.0,0.,12.0,0.,12.0
1980-11-14 03:04:15.660 ,0,0,0.,12.0,0.,12.0,0.,12.0,0.,12.0
1980-11-14 03:04:27.660 ,0,0,0.,12.0,0.,12.0,0.,12.0,0.,12.0
1980-11-14 03:07:03.660 ,0,0,0.,12.0,0.,12.0,0.,12.0,0.,12.0
1980-11-14 03:07:15.660 ,0,0,0.,12.0,0.,12.0,0.,12.0,0.,12.0
1980-11-14 03:07:27.660 ,0,0,0.,12.0,0.,12.0,0.,12.0,0.,12.0
1980-11-14 03:07:39.660 ,0,0,0.,12.0,0.,12.0,0.,12.0,0.,12.0
1980-11-14 03:07:51.660 ,1,1,0.,12.0,0.,12.0,0.,12.0,0.,12.0
1980-11-14 03:08:03.660 ,1,1,0.,12.0,0.,12.0,0.,12.0,0.,12.0
1980-11-14 03:08:15.660 ,1,0,0.,12.0,0.,12.0,0.,12.0,0.,12.0
1980-11-14 03:08:27.660 ,1,0,0.,12.0,0.,12.0,0.,12.0,0.,12.0
1980-11-14 03:08:39.660 ,0,1,0.,12.0,0.,12.0,0.,12.0,0.,12.0
1980-11-14 03:08:51.660 ,0,1,0.,12.0,0.,12.0,0.,12.0,0.,12.0
1980-11-14 03:09:03.660 ,0,0,0.,12.0,0.,12.0,0.,12.0,0.,12.0
1980-11-14 03:09:15.660 ,0,0,0.,12.0,0.,12.0,0.,12.0,0.,12.0
1980-11-14 03:09:27.660 ,0,1,0.,12.0,0.,12.0,0.,12.0,0.,12.0
1980-11-14 03:09:39.660 ,0,1,0.,12.0,0.,12.0,0.,12.0,0.,12.0
1980-11-14 03:09:51.660 ,0,0,0.,12.0,0.,12.0,0.,12.0,0.,12.0
1980-11-14 03:10:03.660 ,0,0,0.,12.0,0.,12.0,0.,12.0,0.,12.0
1980-11-14 03:10:15.660 ,1,1,0.,12.0,0.,12.0,0.,12.0,0.,12.0
1980-11-14 03:10:27.660 ,1,1,0.,12.0,0.,12.0,0.,12.0,0.,12.0
1980-11-14 03:10:39.660 ,1,0,0.,12.0,0.,12.0,0.,12.0,0.,12.0
1980-11-14 03:10:51.660 ,1,0,0.,12.0,0.,12.0,0.,12.0,0.,12.0
1980-11-14 03:11:03.660 ,2,1,0.,12.0,0.,12.0,0.,12.0,0.,12.0
1980-11-14 03:11:15.660 ,2,1,0.,12.0,0.,12.0,0.,12.0,0.,12.0
1980-11-14 03:11:27.660 ,2,0,0.,12.0,0.,12.0,0.,12.0,0.,12.0
1980-11-14 03:11:39.660 ,2,0,0.,12.0,0.,12.0,0.,12.0,0.,12.0
1980-11-14 03:11:51.660 ,3,1,0.,12.0,0.,12.0,0.,12.0,0.,12.0
1980-11-14 03:12:03.660 ,3,1,0.,12.0,0.,12.0,0.,12.0,0.,12.0
1980-11-14 03:12:15.660 ,3,0,0.,12.0,0.,12.0,0.,12.0,0.,12.0
1980-11-14 03:12:27.660 ,3,0,0.,12.0,0.,12.0,0.,12.0,0.,12.0
1980-11-14 03:12:39.660 ,4,1,0.,12.0,0.,12.0,0.,12.0,0.,12.0
1980-11-14 03:12:51.660 ,4,1,0.,12.0,0.,12.0,0.,12.0,0.,12.0
1980-11-14 03:13:03.660 ,4,0,0.,12.0,0.,12.0,0.,12.0,0.,12.0
1980-11-14 03:13:15.660 ,4,0,0.,12.0,0.,12.0,0.,12.0,0.,12.0
1980-11-14 03:13:27.660 ,5,1,0.,12.0,0.,12.0,0.,12.0,0.,12.0
1980-11-14 03:13:39.660 ,5,1,0.,12.0,0.,12.0,0.,12.0,0.,12.0
1980-11-14 03:13:51.660 ,5,0,0.,12.0,0.,12.0,0.,12.0,0.,12.0
1980-11-14 03:14:03.660 ,5,0,0.,12.0,0.,12.0,0.,12.0,0.,12.0
1980-11-14 03:14:15.660 ,6,1,0.,12.0,0.,12.0,0.,12.0,0.,12.0
1980-11-14 03:14:27.660 ,6,1,0.,12.0,0.,12.0,0.,12.0,0.,12.0
1980-11-14 03:14:39.660 ,6,0,0.,12.0,0.,12.0,0.,12.0,0.,12.0
1980-11-14 03:14:51.660 ,6,0,0.,12.0,0.,12.0,0.,12.0,0.,12.0
1980-11-14 03:15:03.660 ,7,1,0.,12.0,0.,12.0,0.,12.0,0.,12.0
1980-11-14 03:15:15.660 ,7,1,0.,12.0,0.,12.0,0.,12.0,0.,12.0
1980-11-14 03:15:27.660 ,7,0,0.,12.0,0.,12.0,0.,12.0,0.,12.0
1980-11-14 03:15:39.660 ,7,0,0.,12.0,0.,12.0,0.,12.0,0.,12.0
1980-11-14 03:15:51.660 ,7,1,0.,12.0,0.,12.0,0.,12.0,0.,12.0
1980-11-14 03:16:03.660 ,7,1,0.,12.0,0.,12.0,0.,12.0,0.,12.0
1980-11-14 03:16:15.660 ,7,0,0.,12.0,0.,12.0,0.,12.0,0.,12.0
1980-11-14 03:16:27.660 ,7,0,0.,12.0,0.,12.0,0.,12.0,0.,12.0
1980-11-14 03:16:39.660 ,6,1,0.,12.0,0.,12.0,0.,12.0,0.,12.0
1980-11-14 03:16:51.660 ,6,1,0.,12.0,0.,12.0,0.,12.0,0.,12.0
1980-11-14 03:17:03.660 ,6,0,0.,12.0,0.,12.0,0.,12.0,0.,12.0
1980-11-14 03:17:15.660 ,6,0,0.,12.0,0.,12.0,0.,12.0,0.,12.0
1980-11-14 03:17:27.660 ,5,1,0.,12.0,0.,12.0,0.,12.0,0.,12.0
1980-11-14 03:17:39.660 ,5,1,0.,12.0,0.,12.0,0.,12.0,0.,12.0
1980-11-14 03:17:51.660 ,5,0,0.,12.0,0.,12.0,0.,12.0,0.,12.0
1980-11-14 03:18:03.660 ,5,0,0.,12.0,0.,12.0,0.,12.0,0.,12.0
1980-11-14 03:18:15.660 ,4,1,0.,12.0,0.,12.0,0.,12.0,0.,12.0
1980-11-14 03:18:27.660 ,4,1,0.,12.0,0.,12.0,0.,12.0,0.,12.0
1980-11-14 03:18:39.660 ,4,0,0.,12.0,0.,12.0,0.,12.0,0.,12.0
1980-11-14 03:18:51.660 ,4,0,0.,12.0,0.,12.0,0.,12.0,0.,12.0
1980-11-14 03:19:03.660 ,3,1,0.,12.0,0.,12.0,0.,12.0,0.,12.0
1980-11-14 03:19:15.660 ,3,1,0.,12.0,0.,12.0,0.,12.0,0.,12.0
1980-11-14 03:19:27.660 ,3,0,0.,12.0,0.,12.0,0.,12.0,0.,12.0
1980-11-14 03:19:39.660 ,3,0,0.,12.0,0.,12.0,0.,12.0,0.,12.0
1980-11-14 03:19:51.660 ,2,1,0.,12.0,0.,12.0,0.,12.0,0.,12.0
1980-11-14 03:20:03.660 ,2,1,0.,12.0,0.,12.0,0.,12.0,0.,12.0
1980-11-14 03:20:15.660 ,2,0,0.,12.0,0.,12.0,0.,12.0,0.,12.0
1980-11-14 03:20:27.660 ,2,0,0.,12.0,0.,12.0,0.,12.0,0.,12.0
1980-11-14 03:20:39.660 ,1,1,0.,12.0,0.,12.0,0.,12.0,0.,12.0
1980-11-14 03:20:51.660 ,1,1,0.,12.0,0.,12.0,0.,12.0,0.,12.0
1980-11-14 03:21:03.660 ,1,0,0.,12.0,0.,12.0,0.,12.0,0.,12.0
1980-11-14 03:21:15.660 ,1,0,0.,12.0,0.,12.0,0.,12.0,0.,12.0
1980-11-14 03:21:27.660 ,0,1,0.,12.0,0.,12.0,0.,12.0,0.,12.0
1980-11-14 03:21:39.660 ,0,1,0.,12.0,0.,12.0,0.,12.0,0.,12.0
1980-11-14 03:21:51.660 ,0,0,0.,12.0,0.,12.0,0.,12.0,0.,12.0
1980-11-14 03:22:03.660 ,0,0,0.,12.0,0.,12.0,0.,12.0,0.,12.0
1980-11-14 03:22:15.660 ,0,1,0.,12.0,0.,12.0,0.,12.0,0.,12.0
1980-11-14 03:22:27.660 ,0,1,0.,12.0,0.,12.0,0.,12.0,0.,12.0
1980-11-14 03:22:39.660 ,0,0,0.,12.0,0.,12.0,0.,12.0,0.,12.0
1980-11-14 03:22:51.660 ,0,0,0.,12.0,0.,12.0,0.,12.0,0.,12.0
1980-11-14 03:23:03.660 ,1,1,0.,12.0,0.,12.0,0.,12.0,0.,12.0
1980-11-14 03:23:15.660 ,1,1,0.,12.0,0.,12.0,0.,12.0,0.,12.0
1980-11-14 03:23:27.660 ,1,0,0.,12.0,0.,12.0,0.,12.0,0.,12.0
1980-11-14 03:23:39.660 ,1,0,0.,12.0,0.,12.0,0.,12.0,0.,12.0
1980-11-14 03:23:51.660 ,2,1,0.,12.0,0.,12.0,0.,12.0,0.,12.0
1980-11-14 03:24:03.660 ,2,1,0.,12.0,0.,12.0,0.,12.0,0.,12.0
1980-11-14 03:24:15.660 ,2,0,0.,12.0,0.,12.0,0.,12.0,0.,12.0
1980-11-14 03:24:27.660 ,2,0,0.,12.0,0.,12.0,0.,12.0,0.,12.0
1980-11-14 03:24:39.660 ,3,1,0.,12.0,0.,12.0,0.,12.0,0.,12.0
1980-11-14 03:24:51.660 ,3,1,0.,12.0,0.,12.0,0.,12.0,0.,12.0
1980-11-14 03:25:03.660 ,3,0,0.,12.0,0.,12.0,0.,12.0,0.,12.0
1980-11-14 03:25:15.660 ,3,0,0.,12.0,0.,12.0,0.,12.0,0.,12.0
1980-11-14 03:25:27.660 ,4,1,0.,12.0,0.,12.0,0.,12.0,0.,12.0
1980-11-14 03:25:39.660 ,4,1,0.,12.0,0.,12.0,0.,12.0,0.,12.0
1980-11-14 03:25:51.660 ,4,0,0.,12.0,0.,12.0,0.,12.0,0.,12.0
1980-11-14 03:26:03.660 ,4,0,0.,12.0,0.,12.0,0.,12.0,0.,12.0
1980-11-14 03:26:15.660 ,5,1,0.,12.0,0.,12.0,0.,12.0,0.,12.0
1980-11-14 03:26:27.660 ,5,1,0.,12.0,0.,12.0,0.,12.0,0.,12.0
1980-11-14 03:26:39.660 ,5,0,0.,12.0,0.,12.0,0.,12.0,0.,12.0
1980-11-14 03:26:51.660 ,5,0,0.,12.0,0.,12.0,0.,12.0,0.,12.0
1980-11-14 03:27:03.660 ,6,1,0.,12.0,0.,12.0,0.,12.0,0.,12.0
1980-11-14 03:27:15.660 ,6,1,0.,12.0,0.,12.0,0.,12.0,0.,12.0
1980-11-14 03:27:27.660 ,6,0,0.,12.0,0.,12.0,0.,12.0,0.,12.0
1980-11-14 03:27:39.660 ,6,0,0.,12.0,0.,12.0,0.,12.0,0.,12.0
1980-11-14 03:27:51.660 ,7,1,0.,12.0,0.,12.0,0.,12.0,0.,12.0
1980-11-14 03:28:03.660 ,7,1,0.,12.0,0.,12.0,0.,12.0,0.,12.0
1980-11-14 03:28:15.660 ,0,0,0.,12.0,0.,12.0,0.,12.0,0.,12.0
1980-11-14 03:28:27.660 ,0,0,0.,12.0,0.,12.0,0.,12.0,0.,12.0
1980-11-14 03:32:33.660 ,0,0,,0,,0,,0,,0
1980-11-14 03:32:45.660 ,0,0,,0,,0,,0,,0
1980-11-14 03:32:39.660 ,2,1,0.,12.0,0.,12.0,0.,12.0,0.,12.0
1980-11-14 03:32:51.660 ,2,1,0.,12.0,0.,12.0,0.,12.0,0.,12.0
1980-11-14 03:33:03.660 ,2,0,0.,12.0,0.,12.0,0.,12.0,0.,12.0
1980-11-14 03:33:15.660 ,2,0,0.,12.0,0.,12.0,0.,12.0,0.,12.0
1980-11-14 03:33:27.660 ,1,1,0.,12.0,0.,12.0,0.,12.0,0.,12.0
1980-11-14 03:33:39.660 ,1,1,0.,12.0,0.,12.0,0.,12.0,0.,12.0
1980-11-14 03:33:51.660 ,1,0,0.,12.0,0.,12.0,0.,12.0,0.,12.0
1980-11-14 03:34:03.660 ,1,0,0.,12.0,0.,12.0,0.,12.0,0.,12.0
1980-11-14 03:34:15.660 ,0,1,0.,12.0,0.,12.0,0.,12.0,0.,12.0
1980-11-14 03:34:27.660 ,0,1,0.,12.0,0.,12.0,0.,12.0,0.,12.0
1980-11-14 03:34:39.660 ,0,0,0.,12.0,0.,12.0,0.,12.0,0.,12.0
1980-11-14 03:34:51.660 ,0,0,0.,12.0,0.,12.0,0.,12.0,0.,12.0
1980-11-14 03:35:03.660 ,0,1,0.,12.0,0.,12.0,0.,12.0,0.,12.0
1980-11-14 03:35:15.660 ,0,1,0.,12.0,0.,12.0,0.,12.0,0.,12.0
1980-11-14 03:35:27.660 ,0,0,0.,12.0,0.,12.0,0.,12.0,0.,12.0
1980-11-14 03:35:39.660 ,0,0,0.,12.0,0.,12.0,0.,12.0,0.,12.0
1980-11-14 03:35:51.660 ,1,1,0.,12.0,0.,12.0,0.,12.0,0.,12.0
1980-11-14 03:36:03.660 ,1,1,0.,12.0,0.,12.0,0.,12.0,0.,12.0
1980-11-14 03:36:15.660 ,1,0,0.,12.0,0.,12.0,0.,12.0,0.,12.0
1980-11-14 03:36:27.660 ,1,0,0.,12.0,0.,12.0,0.,12.0,0.,12.0
1980-11-14 03:36:39.660 ,2,1,0.,12.0,0.,12.0,0.,12.0,0.,12.0
1980-11-14 03:36:51.660 ,2,1,0.,12.0,0.,12.0,0.,12.0,0.,12.0
1980-11-14 03:37:03.660 ,2,0,0.,12.0,0.,12.0,0.,12.0,0.,12.0
1980-11-14 03:37:15.660 ,2,0,0.,12.0,0.,12.0,0.,12.0,0.,12.0
1980-11-14 03:37:27.660 ,3,1,0.,12.0,0.,12.0,0.,12.0,0.,12.0
1980-11-14 03:37:39.660 ,3,1,0.,12.0,0.,12.0,0.,12.0,0.,12.0
1980-11-14 03:37:51.660 ,3,0,0.,12.0,0.,12.0,0.,12.0,0.,12.0
1980-11-14 03:38:03.660 ,3,0,0.,12.0,0.,12.0,0.,12.0,0.,12.0
1980-11-14 03:38:15.660 ,4,1,0.,12.0,0.,12.0,0.,12.0,0.,12.0
1980-11-14 03:38:27.660 ,4,1,0.,12.0,0.,12.0,0.,12.0,0.,12.0
1980-11-14 03:38:39.660 ,4,0,0.,12.0,0.,12.0,0.,12.0,0.,12.0
1980-11-14 03:38:51.660 ,4,0,0.,12.0,0.,12.0,0.,12.0,0.,12.0
1980-11-14 03:39:03.660 ,5,1,0.,12.0,0.,12.0,0.,12.0,0.,12.0
1980-11-14 03:39:15.660 ,5,1,0.,12.0,0.,12.0,0.,12.0,0.,12.0
1980-11-14 03:39:27.660 ,5,0,0.,12.0,0.,12.0,0.,12.0,0.,12.0
1980-11-14 03:39:39.660 ,5,0,0.,12.0,0.,12.0,0.,12.0,0.,12.0
1980-11-14 03:39:51.660 ,6,1,0.,12.0,0.,12.0,0.,12.0,0.,12.0
1980-11-14 03:40:03.660 ,6,1,0.,12.0,0.,12.0,0.,12.0,0.,12.0
1980-11-14 03:40:15.660 ,6,0,0.,12.0,0.,12.0,0.,12.0,0.,12.0
1980-11-14 03:40:27.660 ,6,0,0.,12.0,0.,12.0,0.,12.0,0.,12.0
1980-11-14 03:40:39.660 ,7,1,1.,12.0,0.,12.0,0.,12.0,0.,12.0
1980-11-14 03:40:51.660 ,7,1,0.,12.0,0.,12.0,0.,12.0,0.,12.0
1980-11-14 03:41:03.660 ,7,0,0.,12.0,0.,12.0,0.,12.0,0.,12.0
1980-11-14 03:41:15.660 ,7,0,0.,12.0,0.,12.0,0.,12.0,0.,12.0
1980-11-14 03:41:27.660 ,7,1,0.,12.0,0.,12.0,0.,12.0,0.,12.0
1980-11-14 03:41:39.660 ,7,1,0.,12.0,0.,12.0,0.,12.0,0.,12.0
1980-11-14 03:41:51.660 ,7,0,0.,12.0,0.,12.0,0.,12.0,0.,12.0
1980-11-14 03:42:03.660 ,7,0,0.,12.0,0.,12.0,0.,12.0,0.,12.0
1980-11-14 03:42:15.660 ,6,1,0.,12.0,0.,12.0,0.,12.0,0.,12.0
1980-11-14 03:42:27.660 ,6,1,0.,12.0,0.,12.0,0.,12.0,0.,12.0
1980-11-14 03:42:39.660 ,6,0,0.,12.0,0.,12.0,0.,12.0,0.,12.0
1980-11-14 03:42:51.660 ,6,0,0.,12.0,0.,12.0,0.,12.0,0.,12.0
1980-11-14 03:43:03.660 ,5,1,0.,12.0,0.,12.0,0.,12.0,0.,12.0
1980-11-14 03:43:15.660 ,5,1,0.,12.0,0.,12.0,0.,12.0,0.,12.0
1980-11-14 03:43:27.660 ,5,0,0.,12.0,0.,12.0,0.,12.0,0.,12.0
1980-11-14 03:43:39.660 ,5,0,0.,12.0,0.,12.0,0.,12.0,0.,12.0
1980-11-14 03:43:51.660 ,4,1,0.,12.0,0.,12.0,0.,12.0,0.,12.0
1980-11-14 03:44:03.660 ,4,1,0.,12.0,0.,12.0,0.,12.0,0.,12.0
1980-11-14 03:44:15.660 ,4,0,0.,12.0,0.,12.0,0.,12.0,0.,12.0
1980-11-14 03:44:27.660 ,4,0,0.,12.0,0.,12.0,0.,12.0,0.,12.0
1980-11-14 03:44:39.660 ,3,1,0.,12.0,0.,12.0,0.,12.0,0.,12.0
1980-11-14 03:44:51.660 ,3,1,0.,12.0,0.,12.0,0.,12.0,0.,12.0
1980-11-14 03:45:03.660 ,3,0,0.,12.0,0.,12.0,0.,12.0,0.,12.0
1980-11-14 03:45:15.660 ,3,0,0.,12.0,0.,12.0,0.,12.0,0.,12.0
1980-11-14 03:45:27.660 ,2,1,0.,12.0,0.,12.0,0.,12.0,0.,12.0
1980-11-14 03:45:39.660 ,2,1,0.,12.0,0.,12.0,0.,12.0,0.,12.0
1980-11-14 03:45:51.660 ,2,0,0.,12.0,0.,12.0,0.,12.0,0.,12.0
1980-11-14 03:46:03.660 ,2,0,0.,12.0,0.,12.0,0.,12.0,0.,12.0
1980-11-14 03:46:15.660 ,1,1,0.,12.0,0.,12.0,0.,12.0,0.,12.0
1980-11-14 03:46:27.660 ,1,1,0.,12.0,0.,12.0,0.,12.0,0.,12.0
1980-11-14 03:46:39.660 ,1,0,0.,12.0,0.,12.0,0.,12.0,0.,12.0
1980-11-14 03:46:51.660 ,1,0,0.,12.0,0.,12.0,0.,12.0,0.,12.0
1980-11-14 03:47:03.660 ,0,1,0.,12.0,0.,12.0,0.,12.0,0.,12.0
1980-11-14 03:47:15.660 ,0,1,0.,12.0,0.,12.0,0.,12.0,0.,12.0
1980-11-14 03:47:27.660 ,0,0,0.,12.0,0.,12.0,0.,12.0,0.,12.0
1980-11-14 03:47:39.660 ,0,0,0.,12.0,0.,12.0,0.,12.0,0.,12.0
1980-11-14 03:47:51.660 ,0,1,0.,12.0,0.,12.0,0.,12.0,0.,12.0
1980-11-14 03:48:03.660 ,0,1,0.,12.0,0.,12.0,0.,12.0,0.,12.0
1980-11-14 03:48:15.660 ,0,0,0.,12.0,0.,12.0,0.,12.0,0.,12.0
1980-11-14 03:48:27.660 ,0,0,0.,12.0,0.,12.0,0.,12.0,0.,12.0
1980-11-14 03:48:39.660 ,1,1,0.,12.0,0.,12.0,0.,12.0,0.,12.0
1980-11-14 03:48:51.660 ,1,1,0.,12.0,0.,12.0,0.,12.0,0.,12.0
1980-11-14 03:49:03.660 ,1,0,0.,12.0,0.,12.0,0.,12.0,0.,12.0
1980-11-14 03:49:15.660 ,1,0,0.,12.0,0.,12.0,0.,12.0,0.,12.0
1980-11-14 03:49:27.660 ,2,1,0.,12.0,0.,12.0,0.,12.0,0.,12.0
1980-11-14 03:49:39.660 ,2,1,0.,12.0,0.,12.0,0.,12.0,0.,12.0
1980-11-14 03:49:51.660 ,2,0,0.,12.0,0.,12.0,0.,12.0,0.,12.0
1980-11-14 03:50:03.660 ,2,0,0.,12.0,0.,12.0,0.,12.0,0.,12.0
1980-11-14 03:50:15.660 ,3,1,0.,12.0,0.,12.0,0.,12.0,0.,12.0
1980-11-14 03:50:27.660 ,3,1,0.,12.0,0.,12.0,0.,12.0,0.,12.0
1980-11-14 03:50:39.660 ,3,0,0.,12.0,0.,12.0,0.,12.0,0.,12.0
1980-11-14 03:50:51.660 ,3,0,0.,12.0,0.,12.0,0.,12.0,0.,12.0
1980-11-14 03:51:03.660 ,4,1,0.,12.0,0.,12.0,0.,12.0,0.,12.0
1980-11-14 03:51:15.660 ,4,1,0.,12.0,0.,12.0,0.,12.0,0.,12.0
1980-11-14 03:51:27.660 ,4,0,0.,12.0,0.,12.0,0.,12.0,0.,12.0
1980-11-14 03:51:39.660 ,4,0,0.,12.0,0.,12.0,0.,12.0,0.,12.0
1980-11-14 03:51:51.660 ,5,1,0.,12.0,0.,12.0,0.,12.0,0.,12.0
1980-11-14 03:52:03.660 ,5,1,0.,12.0,0.,12.0,0.,12.0,0.,12.0
1980-11-14 03:52:15.660 ,5,0,0.,12.0,0.,12.0,0.,12.0,0.,12.0
1980-11-14 03:52:27.660 ,5,0,0.,12.0,0.,12.0,0.,12.0,0.,12.0
1980-11-14 03:52:39.660 ,6,1,0.,12.0,0.,12.0,0.,12.0,0.,12.0
1980-11-14 03:52:51.660 ,6,1,0.,12.0,0.,12.0,0.,12.0,0.,12.0
1980-11-14 03:53:03.660 ,6,0,0.,12.0,0.,12.0,0.,12.0,0.,12.0
1980-11-14 03:53:15.660 ,6,0,0.,12.0,0.,12.0,0.,12.0,0.,12.0
1980-11-14 03:53:27.660 ,7,1,0.,12.0,0.,12.0,0.,12.0,0.,12.0
1980-11-14 03:53:39.660 ,7,1,0.,12.0,0.,12.0,0.,12.0,0.,12.0
1980-11-14 03:53:51.660 ,7,0,0.,12.0,0.,12.0,0.,12.0,0.,12.0
1980-11-14 03:54:03.660 ,7,0,0.,12.0,0.,12.0,0.,12.0,0.,12.0
1980-11-14 03:54:15.660 ,7,1,0.,12.0,0.,12.0,0.,12.0,0.,12.0
1980-11-14 03:54:27.660 ,7,1,0.,12.0,0.,12.0,0.,12.0,0.,12.0
1980-11-14 03:54:39.660 ,7,0,0.,12.0,0.,12.0,0.,12.0,0.,12.0
1980-11-14 03:54:51.660 ,7,0,0.,12.0,0.,12.0,0.,12.0,0.,12.0
1980-11-14 03:55:03.660 ,6,1,0.,12.0,0.,12.0,0.,12.0,0.,12.0
1980-11-14 03:55:15.660 ,6,1,0.,12.0,0.,12.0,0.,12.0,0.,12.0
1980-11-14 03:55:27.660 ,6,0,0.,12.0,0.,12.0,0.,12.0,0.,12.0
1980-11-14 03:55:39.660 ,6,0,0.,12.0,0.,12.0,0.,12.0,0.,12.0
1980-11-14 03:55:51.660 ,5,1,0.,12.0,0.,12.0,0.,12.0,0.,12.0
1980-11-14 03:56:03.660 ,5,1,0.,12.0,0.,12.0,0.,12.0,0.,12.0
1980-11-14 03:56:15.660 ,5,0,0.,12.0,0.,12.0,0.,12.0,0.,12.0
1980-11-14 03:56:27.660 ,5,0,0.,12.0,0.,12.0,0.,12.0,0.,12.0
1980-11-14 03:56:39.660 ,4,1,0.,12.0,0.,12.0,0.,12.0,0.,12.0
1980-11-14 03:56:51.660 ,4,1,0.,12.0,0.,12.0,0.,12.0,0.,12.0
1980-11-14 03:57:03.660 ,4,0,0.,12.0,0.,12.0,0.,12.0,0.,12.0
1980-11-14 03:57:15.660 ,4,0,0.,12.0,0.,12.0,0.,12.0,0.,12.0
1980-11-14 03:57:27.660 ,3,1,0.,12.0,0.,12.0,0.,12.0,0.,12.0
1980-11-14 03:57:39.660 ,3,1,0.,12.0,0.,12.0,0.,12.0,0.,12.0
1980-11-14 03:57:51.660 ,3,0,0.,12.0,0.,12.0,0.,12.0,0.,12.0
1980-11-14 03:58:03.660 ,3,0,0.,12.0,0.,12.0,0.,12.0,0.,12.0
1980-11-14 03:58:15.660 ,2,1,0.,12.0,0.,12.0,0.,12.0,0.,12.0
1980-11-14 03:58:27.660 ,2,1,0.,12.0,0.,12.0,0.,12.0,0.,12.0
1980-11-14 03:58:39.660 ,2,0,0.,12.0,0.,12.0,0.,12.0,0.,12.0
1980-11-14 03:58:51.660 ,2,0,0.,12.0,0.,12.0,0.,12.0,0.,12.0
1980-11-14 03:59:03.660 ,1,1,0.,12.0,0.,12.0,0.,12.0,0.,12.0
1980-11-14 03:59:15.660 ,1,1,0.,12.0,0.,12.0,0.,12.0,0.,12.0
1980-11-14 03:59:27.660 ,1,0,0.,12.0,0.,12.0,0.,12.0,0.,12.0
1980-11-14 03:59:39.660 ,1,0,0.,12.0,0.,12.0,0.,12.0,0.,12.0
1980-11-14 03:59:51.660 ,0,1,0.,12.0,0.,12.0,0.,12.0,0.,12.0
1980-11-14 04:00:03.660 ,0,1,0.,12.0,0.,12.0,0.,12.0,0.,12.0
1980-11-14 04:00:15.660 ,0,0,0.,12.0,0.,12.0,0.,12.0,0.,12.0
1980-11-14 04:00:27.660 ,0,0,0.,12.0,0.,12.0,0.,12.0,0.,12.0
1980-11-14 04:00:39.660 ,0,1,0.,12.0,0.,12.0,0.,12.0,0.,12.0
1980-11-14 04:00:51.660 ,0,1,0.,12.0,0.,12.0,0.,12.0,0.,12.0
1980-11-14 04:01:03.660 ,0,0,0.,12.0,0.,12.0,0.,12.0,0.,12.0
1980-11-14 04:01:15.660 ,0,0,0.,12.0,0.,12.0,0.,12.0,0.,12.0
1980-11-14 04:01:27.660 ,1,1,0.,12.0,0.,12.0,0.,12.0,0.,12.0
1980-11-14 04:01:39.660 ,1,1,0.,12.0,0.,12.0,0.,12.0,0.,12.0
1980-11-14 04:01:51.660 ,1,0,0.,12.0,0.,12.0,0.,12.0,0.,12.0
1980-11-14 04:02:03.660 ,1,0,0.,12.0,0.,12.0,0.,12.0,0.,12.0
1980-11-14 04:02:15.660 ,2,1,0.,12.0,0.,12.0,0.,12.0,0.,12.0
1980-11-14 04:02:27.660 ,2,1,0.,12.0,0.,12.0,0.,12.0,0.,12.0
1980-11-14 04:02:39.660 ,2,0,0.,12.0,0.,12.0,0.,12.0,0.,12.0
1980-11-14 04:02:51.660 ,2,0,0.,12.0,0.,12.0,0.,12.0,0.,12.0
1980-11-14 04:03:03.660 ,3,1,0.,12.0,0.,12.0,0.,12.0,0.,12.0
1980-11-14 04:03:15.660 ,3,1,0.,12.0,0.,12.0,0.,12.0,0.,12.0
1980-11-14 04:03:27.660 ,3,0,0.,12.0,0.,12.0,0.,12.0,0.,12.0
1980-11-14 04:03:39.660 ,3,0,0.,12.0,0.,12.0,0.,12.0,0.,12.0
1980-11-14 04:03:51.660 ,4,1,0.,12.0,0.,12.0,0.,12.0,0.,12.0
1980-11-14 04:04:03.660 ,4,1,0.,12.0,0.,12.0,0.,12.0,0.,12.0
1980-11-14 04:04:15.660 ,4,0,0.,12.0,0.,12.0,0.,12.0,0.,12.0
1980-11-14 04:04:27.660 ,4,0,0.,12.0,0.,12.0,0.,12.0,0.,12.0
1980-11-14 04:04:39.660 ,5,1,0.,12.0,0.,12.0,0.,12.0,0.,12.0
1980-11-14 04:04:51.660 ,5,1,0.,12.0,0.,12.0,0.,12.0,0.,12.0
1980-11-14 04:05:03.660 ,5,0,0.,12.0,0.,12.0,0.,12.0,0.,12.0
1980-11-14 04:05:15.660 ,5,0,0.,12.0,0.,12.0,0.,12.0,0.,12.0
1980-11-14 04:05:27.660 ,6,1,0.,12.0,0.,12.0,0.,12.0,0.,12.0
1980-11-14 04:05:39.660 ,6,1,0.,12.0,0.,12.0,0.,12.0,0.,12.0
1980-11-14 04:05:51.660 ,6,0,0.,12.0,0.,12.0,0.,12.0,0.,12.0
1980-11-14 04:06:03.660 ,6,0,0.,12.0,0.,12.0,0.,12.0,0.,12.0
1980-11-14 04:06:15.660 ,7,1,0.,12.0,0.,12.0,0.,12.0,0.,12.0
1980-11-14 04:06:27.660 ,7,1,0.,12.0,0.,12.0,0.,12.0,0.,12.0
1980-11-14 04:06:39.660 ,7,0,0.,12.0,0.,12.0,0.,12.0,0.,12.0
1980-11-14 04:06:51.660 ,7,0,0.,12.0,0.,12.0,0.,12.0,0.,12.0
1980-11-14 04:07:03.660 ,7,1,0.,12.0,0.,12.0,0.,12.0,0.,12.0
1980-11-14 04:07:15.660 ,7,1,0.,12.0,0.,12.0,0.,12.0,0.,12.0
1980-11-14 04:07:27.660 ,7,0,0.,12.0,0.,12.0,0.,12.0,0.,12.0
1980-11-14 04:07:39.660 ,7,0,0.,12.0,0.,12.0,0.,12.0,0.,12.0
1980-11-14 04:07:51.660 ,6,1,0.,12.0,0.,12.0,0.,12.0,0.,12.0
1980-11-14 04:08:03.660 ,6,1,0.,12.0,0.,12.0,0.,12.0,0.,12.0
1980-11-14 04:08:15.660 ,6,0,0.,12.0,0.,12.0,0.,12.0,0.,12.0
1980-11-14 04:08:27.660 ,6,0,0.,12.0,0.,12.0,0.,12.0,0.,12.0
1980-11-14 04:08:39.660 ,5,1,0.,12.0,0.,12.0,0.,12.0,0.,12.0
1980-11-14 04:08:51.660 ,5,1,0.,12.0,0.,12.0,0.,12.0,0.,12.0
1980-11-14 04:09:03.660 ,5,0,0.,12.0,0.,12.0,0.,12.0,0.,12.0
1980-11-14 04:09:15.660 ,5,0,0.,12.0,0.,12.0,0.,12.0,0.,12.0
1980-11-14 04:09:27.660 ,4,1,0.,12.0,0.,12.0,0.,12.0,0.,12.0
1980-11-14 04:09:39.660 ,4,1,0.,12.0,0.,12.0,0.,12.0,0.,12.0
1980-11-14 04:09:51.660 ,4,0,0.,12.0,0.,12.0,0.,12.0,0.,12.0
1980-11-14 04:10:03.660 ,4,0,0.,12.0,0.,12.0,0.,12.0,0.,12.0
1980-11-14 04:10:15.660 ,3,1,0.,12.0,0.,12.0,0.,12.0,0.,12.0
1980-11-14 04:10:27.660 ,3,1,0.,12.0,0.,12.0,0.,12.0,0.,12.0
1980-11-14 04:10:39.660 ,3,0,0.,12.0,0.,12.0,0.,12.0,0.,12.0
1980-11-14 04:10:51.660 ,3,0,0.,12.0,0.,12.0,0.,12.0,0.,12.0
1980-11-14 04:11:03.660 ,2,1,0.,12.0,0.,12.0,0.,12.0,0.,12.0
1980-11-14 04:11:15.660 ,2,1,0.,12.0,0.,12.0,0.,12.0,0.,12.0
1980-11-14 04:11:27.660 ,2,0,0.,12.0,0.,12.0,0.,12.0,0.,12.0
1980-11-14 04:11:39.660 ,2,0,0.,12.0,0.,12.0,0.,12.0,0.,12.0
1980-11-14 04:11:51.660 ,1,1,0.,12.0,0.,12.0,0.,12.0,0.,12.0
1980-11-14 04:12:03.660 ,1,1,0.,12.0,0.,12.0,0.,12.0,0.,12.0
1980-11-14 04:12:15.660 ,1,0,0.,12.0,0.,12.0,0.,12.0,0.,12.0
1980-11-14 04:12:27.660 ,1,0,1.,12.0,0.,12.0,0.,12.0,0.,12.0
1980-11-14 04:12:39.660 ,0,1,0.,12.0,0.,12.0,0.,12.0,0.,12.0
1980-11-14 04:12:51.660 ,0,1,0.,12.0,0.,12.0,0.,12.0,0.,12.0
1980-11-14 04:13:03.660 ,0,0,0.,12.0,0.,12.0,0.,12.0,0.,12.0
1980-11-14 04:13:15.660 ,0,0,0.,12.0,0.,12.0,0.,12.0,0.,12.0
1980-11-14 04:13:27.660 ,0,1,0.,12.0,0.,12.0,0.,12.0,0.,12.0
1980-11-14 04:13:39.660 ,0,1,0.,12.0,0.,12.0,0.,12.0,0.,12.0
1980-11-14 04:13:51.660 ,0,0,0.,12.0,0.,12.0,0.,12.0,0.,12.0
1980-11-14 04:14:03.660 ,0,0,0.,12.0,0.,12.0,0.,12.0,0.,12.0
1980-11-14 04:14:15.660 ,1,1,0.,12.0,0.,12.0,0.,12.0,0.,12.0
1980-11-14 04:14:27.660 ,1,1,0.,12.0,0.,12.0,0.,12.0,0.,12.0
1980-11-14 04:14:39.660 ,1,0,0.,12.0,0.,12.0,0.,12.0,0.,12.0
1980-11-14 04:14:51.660 ,1,0,0.,12.0,0.,12.0,0.,12.0,0.,12.0
1980-11-14 04:15:03.660 ,2,1,0.,12.0,0.,12.0,0.,12.0,0.,12.0
1980-11-14 04:15:15.660 ,2,1,0.,12.0,0.,12.0,0.,12.0,0.,12.0
1980-11-14 04:15:27.660 ,2,0,0.,12.0,0.,12.0,0.,12.0,0.,12.0
1980-11-14 04:15:39.660 ,2,0,0.,12.0,0.,12.0,0.,12.0,0.,12.0
1980-11-14 04:15:51.660 ,2,0,0.,12.0,0.,12.0,0.,12.0,0.,12.0
1980-11-14 04:16:03.660 ,2,0,,0,,0,,0,,0
1980-11-14 04:16:15.660 ,3,0,0.,12.0,0.,12.0,0.,12.0,0.,12.0
1980-11-14 04:16:27.660 ,3,0,0.,12.0,0.,12.0,0.,12.0,0.,12.0
1980-11-14 04:16:39.660 ,4,1,0.,12.0,0.,12.0,0.,12.0,0.,12.0
1980-11-14 04:16:51.660 ,4,1,0.,12.0,0.,12.0,0.,12.0,0.,12.0
1980-11-14 04:17:03.660 ,4,0,0.,12.0,0.,12.0,0.,12.0,0.,12.0
1980-11-14 04:17:15.660 ,4,0,0.,12.0,0.,12.0,0.,12.0,0.,12.0
1980-11-14 04:17:27.660 ,5,1,0.,12.0,0.,12.0,0.,12.0,0.,12.0
1980-11-14 04:17:39.660 ,5,1,0.,12.0,0.,12.0,0.,12.0,0.,12.0
1980-11-14 04:17:51.660 ,5,0,0.,12.0,0.,12.0,0.,12.0,0.,12.0
1980-11-14 04:18:03.660 ,5,0,0.,12.0,0.,12.0,0.,12.0,0.,12.0
1980-11-14 04:18:15.660 ,6,1,0.,12.0,0.,12.0,0.,12.0,0.,12.0
1980-11-14 04:18:27.660 ,6,1,0.,12.0,0.,12.0,0.,12.0,0.,12.0
1980-11-14 04:18:39.660 ,6,0,0.,12.0,0.,12.0,0.,12.0,0.,12.0
1980-11-14 04:18:51.660 ,6,0,0.,12.0,0.,12.0,0.,12.0,0.,12.0
1980-11-14 04:19:03.660 ,7,1,0.,12.0,0.,12.0,0.,12.0,0.,12.0
1980-11-14 04:19:15.660 ,7,1,0.,12.0,0.,12.0,0.,12.0,0.,12.0
1980-11-14 04:19:27.660 ,7,0,0.,12.0,0.,12.0,0.,12.0,0.,12.0
1980-11-14 04:19:39.660 ,7,0,0.,12.0,0.,12.0,0.,12.0,0.,12.0
1980-11-14 04:19:51.660 ,7,1,0.,12.0,0.,12.0,0.,12.0,0.,12.0
1980-11-14 04:20:03.660 ,7,1,0.,12.0,0.,12.0,0.,12.0,0.,12.0
1980-11-14 04:20:15.660 ,7,0,0.,12.0,0.,12.0,0.,12.0,0.,12.0
1980-11-14 04:20:27.660 ,7,0,0.,12.0,0.,12.0,0.,12.0,0.,12.0
1980-11-14 04:20:39.660 ,6,1,0.,12.0,0.,12.0,0.,12.0,0.,12.0
1980-11-14 04:20:51.660 ,6,1,0.,12.0,0.,12.0,0.,12.0,0.,12.0
1980-11-14 04:21:03.660 ,0,0,0.,12.0,0.,12.0,0.,12.0,0.,12.0
1980-11-14 04:21:15.660 ,0,0,0.,12.0,0.,12.0,0.,12.0,0.,12.0
1980-11-14 04:21:51.060 ,0,0,,0,,0,,0,,0
1980-11-14 04:22:03.060 ,0,0,,0,,0,,0,,0
1980-11-14 04:21:51.660 ,0,0,0.,12.0,0.,12.0,0.,12.0,0.,12.0
1980-11-14 04:22:03.660 ,0,0,0.,12.0,0.,12.0,0.,12.0,0.,12.0
1980-11-14 04:22:15.660 ,4,1,0.,12.0,0.,12.0,0.,12.0,0.,12.0
1980-11-14 04:22:27.660 ,4,1,0.,12.0,0.,12.0,0.,12.0,0.,12.0
1980-11-14 04:22:39.660 ,4,0,0.,12.0,0.,12.0,0.,12.0,0.,12.0
1980-11-14 04:22:51.660 ,4,0,0.,12.0,0.,12.0,0.,12.0,0.,12.0
1980-11-14 04:23:03.660 ,3,1,0.,12.0,0.,12.0,0.,12.0,0.,12.0
1980-11-14 04:23:15.660 ,3,1,0.,12.0,0.,12.0,0.,12.0,0.,12.0
1980-11-14 04:23:27.660 ,3,0,0.,12.0,0.,12.0,0.,12.0,0.,12.0